When you browse on this site, cookies collect data to enhance your experience and personalize the content and advertising you see.
Visit our Privacy Policy to learn more. By continuing to use the site, you agree to this use of cookies and data.

Previsão horária em Dzhinyh

Hoje, 16 Julho, Quinta-feira

Tempo Temperatura Precipitação Vento Pressão Humidade
00:00 +13°C° 0.1 mm 1 m/s 610 mmHg 89%
01:00 +13°C° 0 mm 1 m/s 610 mmHg 88%
02:00 +12°C° 0 mm 1 m/s 609 mmHg 88%
03:00 +12°C° 0 mm 1 m/s 609 mmHg 88%
04:00 +13°C° 0 mm 1 m/s 610 mmHg 86%
05:00 +14°C° 0 mm 1 m/s 610 mmHg 83%
06:00 +15°C° 0 mm 1 m/s 611 mmHg 81%
07:00 +18°C° 0.1 mm 1 m/s 611 mmHg 78%
08:00 +19°C° 0.1 mm 1 m/s 612 mmHg 74%
09:00 +19°C° 0.1 mm 2 m/s 612 mmHg 71%
10:00 +19°C° 0.7 mm 2 m/s 612 mmHg 71%
11:00 +20°C° 0.7 mm 2 m/s 612 mmHg 72%
12:00 +20°C° 0.7 mm 2 m/s 612 mmHg 72%
13:00 +20°C° 0.8 mm 2 m/s 612 mmHg 71%
14:00 +21°C° 0.8 mm 2 m/s 612 mmHg 69%
15:00 +21°C° 0.8 mm 2 m/s 612 mmHg 68%
16:00 +20°C° 0.2 mm 2 m/s 611 mmHg 69%
17:00 +21°C° 0.2 mm 1 m/s 611 mmHg 70%
18:00 +21°C° 0.2 mm 1 m/s 611 mmHg 71%
19:00 +19°C° 0.1 mm 1 m/s 610 mmHg 75%
20:00 +16°C° 0.1 mm 1 m/s 609 mmHg 80%
21:00 +14°C° 0.1 mm 1 m/s 609 mmHg 84%
22:00 +14°C° 0 mm 1 m/s 609 mmHg 84%
23:00 +13°C° 0 mm 1 m/s 608 mmHg 83%

Amanhã, 17 Julho, Sexta-feira

Tempo Temperatura Precipitação Vento Pressão Humidade
00:00 +13°C° 0 mm 1 m/s 608 mmHg 83%
01:00 +13°C° 0 mm 1 m/s 608 mmHg 83%
02:00 +12°C° 0 mm 1 m/s 608 mmHg 82%
03:00 +12°C° 0 mm 1 m/s 608 mmHg 81%
04:00 +13°C° 0 mm 1 m/s 608 mmHg 79%
05:00 +15°C° 0 mm 1 m/s 609 mmHg 78%
06:00 +16°C° 0 mm 1 m/s 609 mmHg 77%
07:00 +19°C° 0 mm 1 m/s 610 mmHg 71%
08:00 +19°C° 0 mm 2 m/s 610 mmHg 65%
09:00 +20°C° 0 mm 2 m/s 611 mmHg 60%
10:00 +21°C° 0 mm 2 m/s 611 mmHg 59%
11:00 +23°C° 0 mm 2 m/s 611 mmHg 57%
12:00 +24°C° 0 mm 3 m/s 611 mmHg 56%
13:00 +24°C° 0.2 mm 3 m/s 611 mmHg 56%
14:00 +24°C° 0.2 mm 3 m/s 611 mmHg 55%
15:00 +24°C° 0.2 mm 3 m/s 610 mmHg 55%
16:00 +23°C° 0.1 mm 2 m/s 610 mmHg 58%
17:00 +23°C° 0.1 mm 2 m/s 610 mmHg 60%
18:00 +21°C° 0.1 mm 2 m/s 610 mmHg 63%
19:00 +20°C° 0.1 mm 1 m/s 609 mmHg 68%
20:00 +19°C° 0.1 mm 1 m/s 609 mmHg 73%
21:00 +16°C° 0.1 mm 1 m/s 608 mmHg 77%
22:00 +16°C° 0 mm 1 m/s 608 mmHg 78%
23:00 +16°C° 0 mm 1 m/s 608 mmHg 78%

Depois de amanhã, 18 Julho, Sábado

Tempo Temperatura Precipitação Vento Pressão Humidade
00:00 +16°C° 0 mm 1 m/s 609 mmHg 78%
01:00 +15°C° 0 mm 1 m/s 608 mmHg 79%
02:00 +15°C° 0 mm 1 m/s 608 mmHg 79%
03:00 +14°C° 0 mm 1 m/s 608 mmHg 79%
04:00 +15°C° 0 mm 1 m/s 609 mmHg 77%
05:00 +18°C° 0 mm 1 m/s 609 mmHg 74%
06:00 +19°C° 0 mm 1 m/s 610 mmHg 72%
07:00 +20°C° 0 mm 1 m/s 611 mmHg 66%
08:00 +21°C° 0 mm 2 m/s 611 mmHg 61%
09:00 +23°C° 0 mm 2 m/s 612 mmHg 56%
10:00 +24°C° 0.3 mm 2 m/s 612 mmHg 54%
11:00 +25°C° 0.3 mm 2 m/s 612 mmHg 51%
12:00 +25°C° 0.3 mm 3 m/s 612 mmHg 48%
13:00 +25°C° 0.3 mm 3 m/s 612 mmHg 48%
14:00 +26°C° 0.3 mm 3 m/s 612 mmHg 48%
15:00 +26°C° 0.3 mm 2 m/s 612 mmHg 48%
16:00 +25°C° 0.2 mm 2 m/s 612 mmHg 53%
17:00 +24°C° 0.2 mm 2 m/s 612 mmHg 58%
18:00 +23°C° 0.2 mm 2 m/s 612 mmHg 62%
19:00 +20°C° 0.1 mm 2 m/s 611 mmHg 67%
20:00 +19°C° 0.1 mm 1 m/s 611 mmHg 72%
21:00 +16°C° 0.1 mm 1 m/s 611 mmHg 77%
22:00 +16°C° 0 mm 1 m/s 610 mmHg 76%
23:00 +16°C° 0 mm 1 m/s 610 mmHg 76%

19 Julho, Domingo

Tempo Temperatura Precipitação Vento Pressão Humidade
00:00 +15°C° 0 mm 1 m/s 610 mmHg 76%
01:00 +15°C° 0 mm 1 m/s 610 mmHg 74%
02:00 +15°C° 0 mm 1 m/s 610 mmHg 73%
03:00 +15°C° 0 mm 1 m/s 610 mmHg 72%
04:00 +16°C° 0 mm 1 m/s 611 mmHg 71%
05:00 +19°C° 0 mm 1 m/s 612 mmHg 70%
06:00 +20°C° 0 mm 1 m/s 612 mmHg 70%
07:00 +21°C° 0 mm 1 m/s 613 mmHg 66%
08:00 +21°C° 0 mm 2 m/s 613 mmHg 62%
09:00 +24°C° 0 mm 2 m/s 614 mmHg 59%
10:00 +24°C° 0.4 mm 2 m/s 614 mmHg 57%
11:00 +25°C° 0.4 mm 2 m/s 614 mmHg 56%
12:00 +26°C° 0.4 mm 3 m/s 614 mmHg 54%
13:00 +26°C° 0.2 mm 2 m/s 614 mmHg 54%
14:00 +26°C° 0.2 mm 2 m/s 614 mmHg 53%
15:00 +26°C° 0.2 mm 2 m/s 613 mmHg 53%
16:00 +26°C° 0.1 mm 2 m/s 613 mmHg 56%
17:00 +25°C° 0.1 mm 2 m/s 613 mmHg 60%
18:00 +25°C° 0.1 mm 1 m/s 612 mmHg 64%
19:00 +22°C° 0 mm 1 m/s 612 mmHg 69%
20:00 +20°C° 0 mm 1 m/s 611 mmHg 74%
21:00 +18°C° 0 mm 1 m/s 610 mmHg 79%
22:00 +18°C° 0 mm 1 m/s 610 mmHg 79%
23:00 +17°C° 0 mm 2 m/s 610 mmHg 79%

20 Julho, Segunda-feira

Tempo Temperatura Precipitação Vento Pressão Humidade
00:00 +17°C° 0 mm 2 m/s 610 mmHg 79%
01:00 +16°C° 0 mm 2 m/s 610 mmHg 77%
02:00 +16°C° 0 mm 1 m/s 610 mmHg 74%
03:00 +16°C° 0 mm 1 m/s 610 mmHg 72%
04:00 +19°C° 0 mm 1 m/s 610 mmHg 70%
05:00 +20°C° 0 mm 1 m/s 611 mmHg 68%
06:00 +21°C° 0 mm 1 m/s 612 mmHg 66%
07:00 +23°C° 0 mm 1 m/s 612 mmHg 60%
08:00 +24°C° 0 mm 2 m/s 613 mmHg 55%
09:00 +26°C° 0 mm 2 m/s 613 mmHg 49%
10:00 +26°C° 0 mm 2 m/s 613 mmHg 48%
11:00 +27°C° 0 mm 2 m/s 613 mmHg 48%
12:00 +28°C° 0 mm 3 m/s 613 mmHg 47%
13:00 +28°C° 0 mm 3 m/s 613 mmHg 47%
14:00 +28°C° 0 mm 3 m/s 613 mmHg 47%
15:00 +28°C° 0 mm 3 m/s 613 mmHg 47%
16:00 +27°C° 0 mm 2 m/s 612 mmHg 51%
17:00 +26°C° 0 mm 2 m/s 612 mmHg 56%
18:00 +25°C° 0 mm 2 m/s 612 mmHg 60%
19:00 +23°C° 0 mm 1 m/s 611 mmHg 66%
20:00 +21°C° 0 mm 1 m/s 610 mmHg 72%
21:00 +18°C° 0 mm 1 m/s 610 mmHg 78%
22:00 +18°C° 0 mm 1 m/s 610 mmHg 78%
23:00 +18°C° 0 mm 1 m/s 609 mmHg 78%

21 Julho, Terça-feira

Tempo Temperatura Precipitação Vento Pressão Humidade
00:00 +18°C° 0 mm 1 m/s 609 mmHg 78%
01:00 +18°C° 0 mm 1 m/s 609 mmHg 76%
02:00 +16°C° 0 mm 1 m/s 609 mmHg 75%
03:00 +16°C° 0 mm 1 m/s 608 mmHg 73%
04:00 +18°C° 0 mm 1 m/s 609 mmHg 72%
05:00 +20°C° 0 mm 1 m/s 609 mmHg 70%
06:00 +21°C° 0 mm 1 m/s 610 mmHg 68%
07:00 +22°C° 0 mm 1 m/s 610 mmHg 65%
08:00 +24°C° 0 mm 1 m/s 610 mmHg 61%
09:00 +25°C° 0 mm 2 m/s 611 mmHg 58%
10:00 +26°C° 0.2 mm 2 m/s 611 mmHg 56%
11:00 +26°C° 0.2 mm 2 m/s 611 mmHg 54%
12:00 +27°C° 0.2 mm 2 m/s 610 mmHg 53%
13:00 +27°C° 0.5 mm 2 m/s 610 mmHg 53%
14:00 +27°C° 0.5 mm 2 m/s 609 mmHg 53%
15:00 +27°C° 0.5 mm 2 m/s 609 mmHg 53%
16:00 +26°C° 0.5 mm 2 m/s 609 mmHg 57%
17:00 +25°C° 0.5 mm 2 m/s 608 mmHg 61%
18:00 +25°C° 0.5 mm 1 m/s 608 mmHg 66%
19:00 +23°C° 0.3 mm 1 m/s 607 mmHg 70%
20:00 +21°C° 0.3 mm 1 m/s 607 mmHg 75%
21:00 +19°C° 0.3 mm 1 m/s 606 mmHg 80%
22:00 +18°C° 0.2 mm 1 m/s 606 mmHg 80%
23:00 +18°C° 0.2 mm 1 m/s 606 mmHg 81%
Mostrar mais